User: anonymous   Login
Location: Mt. Graham
(32.7020°N, 109.8880°W)
Time: 15:58:29
(UTC-07:00)
Language:

RS-44 - Orbit

View from above orbital plane
View from above orbital plane
View from above satellite
View from above satellite

Ground track
Ground track

The orbit data is extracted from the following two-line orbital elements,

1 44909U 19096E   24148.00345545  .00000028  00000-0  57508-4 0  9995
2 44909  82.5186 118.8515 0218666 100.6556 261.9250 12.79730050206310
Epoch (UTC): 27 May 2024 00:04:58
Eccentricity: 0.0218666
inclination: 82.5186°
perigee height: 1174 km
apogee height: 1511 km
right ascension of ascending node: 118.8515°
argument of perigee: 100.6556°
revolutions per day: 12.79730050
mean anomaly at epoch: 261.9250°
orbit number at epoch: 20631

The dashed part of the orbit path shows where the satellite is in the earth's shadow,  

DLR